Miscellaneous Local Product
Issued by NWS North Platte, NE

Home | Current Version | Previous Version | Graphics & Text | Print | Product List | Glossary On
Versions: 1 2 3 4 5 6 7 8 9 10 11 12 13 14 15 16 17 18 19 20 21 22 23 24 25 26 27 28 29 30 31 32 33 34 35 36 37 38 39 40 41 42 43 44 45 46 47 48 49 50
000
AXUS43 KLBF 031210
MISLBF


WESTERN AND NORTH CENTRAL NEBRASKA HOURLY WEATHER ROUNDUP
NATIONAL WEATHER SERVICE NORTH PLATTE NE
600 AM CST TUE MAR 03 2015

***STATIONS NOT REPORTING VARIABLES SUCH AS SKY/WEATHER OR
PRESSURE ARE PROVIDED BY THE NEBRASKA DEPARTMENT OF
ROADS...RAWS...AND APRS NETWORKS...AND ARE NOT UNDER
NATIONAL WEATHER SERVICE QUALITY CONTROL***

...OBSERVATIONS IN AND NEAR THE EASTERN PANHANDLE OF NEBRASKA...

CITY           SKY/WX    TMP DP  RH WIND       PRES   REMARKS
PINE RIDGE     LGT SNOW  17  11  77 N17G30    29.86R WCI   1
CHADRON        FOG       18  14  84 NE23G31   29.87R VSB 1   WCI   0
ALLIANCE       CLOUDY    21  17  84 N31G43    29.75R WCI   2
SIDNEY         CLOUDY    28  25  88 N26G37    29.73R WCI  13
WHITECLAY        N/A     16  10  79 N23         N/A  WCI  -2
CRESCENT LAKE    N/A     25  21  83 N22G37      N/A  WCI  10
LISCO            N/A     29  20  70 NW21        N/A  WCI  16
BIG SPRINGS      N/A     31  30  96 NW6         N/A  WCI  25
LEWELLEN         N/A     30  28  94 NW13        N/A  WCI  20
$$

...OBSERVATIONS IN NORTH CENTRAL NEBRASKA...

CITY           SKY/WX    TMP DP  RH WIND       PRES   REMARKS
VALENTINE      LGT SNOW  23  18  81 N23G41    29.73R WCI   7
THEDFORD       MIX PCPN  32  30  93 N15G21    29.66R WCI  22
AINSWORTH      CLOUDY    29  26  89 N33G40    29.69R FOG     WCI  12
O`NEILL        CLOUDY    29  25  84 W12       29.67R WCI  19
ORD            CLOUDY    27  21  78 W8        29.67R WCI  19
BROKEN BOW     CLOUDY    28  22  78 NW7       29.65R WCI  21
BROWNLEE         N/A     25  21  86 NW31        N/A  WCI   8
SPRINGVIEW       N/A     29  27  90 W8          N/A  WCI  21
BREWSTER         N/A     30  30 100 CALM        N/A
ROSE             N/A     30  30 100 CALM        N/A
NEWPORT          N/A     32  30  93 W10         N/A  WCI  24
SARGENT          N/A     28  23  81 W3          N/A
COMSTOCK         N/A     32  27  81 W6          N/A  WCI  27
CHAMBERS         N/A     28  20  71 W10         N/A  WCI  19
EWING            N/A     29  24  80 W7          N/A  WCI  22
$$

...OBSERVATIONS IN SOUTHWEST NEBRASKA AND FAR NORTHEAST COLORADO...

CITY           SKY/WX    TMP DP  RH WIND       PRES   REMARKS
WRAY           CLOUDY   N/A N/A N/A NW14G21   29.66R HAZE
IMPERIAL         N/A     29  27  92 N12       29.66R FOG     WCI  19
OGALLALA       CLOUDY    31  31  99 NW10      29.70R FOG     WCI  22
NORTH PLATTE   CLOUDY    28  25  88 W9        29.67R WCI  19
MCCOOK         CLOUDY    29  23  78 NW8       29.66R WCI  21
LEXINGTON      CLOUDY    29  24  81 NW7       29.66R WCI  22
PAXTON           N/A     30  29  94 NW5         N/A  WCI  25
BRADY            N/A     27  24  86 CALM        N/A
GOTHENBURG       N/A     27  22  80 NW6         N/A  WCI  21
CALLAWAY         N/A     27  25  90 W9          N/A  WCI  18
$$

...NORTH PLATTE AREA...

CITY           SKY/WX    TMP DP  RH WIND       PRES   REMARKS
AIRPORT        CLOUDY    28  25  88 W9        29.67R WCI  19
DOWNTOWN         N/A     28  26  90 NW3         N/A
$$

...SOME WEATHER OBSERVATIONS FROM AROUND THE REGION...

CITY           SKY/WX    TMP DP  RH WIND       PRES   REMARKS
DENVER         PTCLDY    38  16  40 W24G32    29.65R WCI  27
LARAMIE        CLOUDY    18  15  88 NW18      29.67R WCI   2
CHEYENNE       LGT SNOW  20  16  84 N22G33    29.72R VSB 3/4 WCI   3
SCOTTSBLUFF    CLOUDY    25  19  78 N16       29.80R WCI  12
RAPID CITY     FOG       15  12  88 N32G43    29.89R VSB 3/4 WCI  -6
PIERRE         LGT SNOW  18  14  84 N29G43    29.83R VSB 1   WCI  -1
WINNER         LGT SNOW  22  16  78 N31G41    29.77R VSB 3/4 WCI   4
SIOUX FALLS    SNOW      25  22  88 CALM      29.67R VSB 1/2
OMAHA          FRZ DRZL  31  29  92 S10       29.67S FOG     WCI  22
GRAND ISLAND   CLOUDY    29  25  85 CALM      29.63S
KANSAS CITY    DRIZZLE   36  35  96 SW20G28   29.74S WCI  25
WICHITA        CLOUDY    36  34  92 S20G31    29.76R WCI  25
HAYS           MOCLDY    37  27  65 SW7       29.61F WCI  32
LIBERAL        CLOUDY    37  34  87 SW18      29.74R WCI  27
GOODLAND       CLOUDY    30  29  96 N14       29.65R FOG     WCI  19
$$



USA.gov is the U.S. government's official web portal to all federal, state and local government web resources and services.